sat.trackr.live / text

‹ back to catalog

COMSATBW-2

NORAD 36582 · 2010-021B

PAYLOAD ACTIVE UNKNOWN

§ Identity

Operator
Country
GER
Launch date
2010-05-21
Launch site
FRGUI
Launch vehicle
Mass (kg)
RCS (m²)
6.31

Purposes: comms

External: N2YO · Heavens-Above · Gunter

§ Orbital elements

Epoch: 2026-05-25T03:48:24.399072Z

Period
1,436.10 min
Inclination
0.0286°
Eccentricity
0.0002826
Mean motion
1.00271913 rev/d
Perigee alt
35,774.6 km
Apogee alt
35,798.5 km
Semi-major
42,164.7 km
B*
0.0000e+0
RAAN
110.5083°
Arg perigee
325.4355°
Mean anomaly
237.0513°
Rev number
5,872

§ Raw data

COMSATBW-21 36582U 10021B   26145.15861573  .00000086  00000+0  00000+0 0  99942 36582   0.0286 110.5083 0002826 325.4355 237.0513  1.00271913 58722

JSON: /api/v1/satellites/36582 · /tle

For live sub-satellite position, see the globe view (requires WebGL).

§ Visibility from observer

Set your observer location to see the next 7 days of passes ≥ 10°. The values pass through the URL so the page stays shareable.

No JS? Fill the form by hand. The geolocation button needs JavaScript.